Meteo Giornale » Osservazioni meteo Francia » Cannes

ore: 15:30 - Osservazioni Meteo Cannes
Lat. 43° 33' N Lon. 6° 57' E Alt. 3 metri s.l.m.

sereno Europe/Paris

16 °C

Sereno

Temp. 24 Ore

5 °C

16 °C

Est/Nord-Est

11.1 Km/h

Dew point 8 °C

Umidità 58 %

Visibilità  10 Km

Il sole sorge alle ore 07:16

Il sole tramonta alle ore 18:14

Data e Ora Cielo e Fenomeni T °C DP °C Um. % Pres. hPa Vis. km Vento km/h
Oggi h: 15:30 sereno Sereno 16 8 58 1025 10 E/NE 11.1
Oggi h: 15:00 sereno Sereno 16 8 58 1025 10 N 9.3
Oggi h: 14:30 sereno Sereno 16 8 58 1026 10 E/SE 7.4
Oggi h: 14:00 sereno Sereno 16 8 58 1026 10 N 5.5
Oggi h: 13:30 sereno Sereno 16 8 58 1026 10 E/NE 9.3
Oggi h: 13:00 sereno Sereno 16 10 67 1027 10 S 9.3
Oggi h: 12:30 poco_nuvoloso Poco Nuvoloso 16 9 63 1027 10 N 5.5
Oggi h: 12:00 nuvoloso Nuvoloso 16 10 67 1028 10 N 5.5
Oggi h: 11:30 sereno Sereno 15 9 67 1028 10 N 3.7
Oggi h: 11:00 sereno Sereno 14 8 67 1029 10 N 5.5
Oggi h: 10:30 sereno Sereno 12 8 76 1029 10 N 5.5
Oggi h: 10:00 sereno Sereno 10 6 76 1029 10 N 9.3
Oggi h: 09:30 sereno Sereno 8 6 87 1029 10 N 9.3
Oggi h: 09:00 sereno Sereno 7 5 87 1029 10 N 7.4
Oggi h: 08:30 sereno Sereno 6 4 86 1029 10 N 7.4
Oggi h: 08:00 sereno Sereno 5 4 93 1029 10 N 5.5
Oggi h: 07:30 sereno Sereno 5 4 93 1029 10 N 7.4
Oggi h: 07:00 sereno Sereno 5 4 93 1029 10 N 7.4
Oggi h: 06:30 poco_nuvoloso Poco Nuvoloso 5 4 93 1029 10 N 5.5
Oggi h: 06:00 nuvoloso Nuvoloso 5 4 93 1029 10 N 5.5
Oggi h: 05:00 sereno Sereno 5 4 93 1029 10 N 5.5
Oggi h: 04:30 sereno Sereno 5 4 93 1029 10 N 7.4
Oggi h: 04:00 sereno Sereno 5 4 93 1029 10 N 9.3
Oggi h: 03:30 sereno Sereno 5 4 93 1030 10 N 7.4
Oggi h: 03:00 sereno Sereno 5 4 93 1030 10 N 5.5
Oggi h: 02:30 sereno Sereno 5 4 93 1030 10 N 5.5
Oggi h: 02:00 sereno Sereno 6 4 86 1031 10 N 7.4
Oggi h: 01:30 sereno Sereno 6 5 93 1031 10 N 7.4
Oggi h: 01:00 sereno Sereno 6 5 93 1031 10 N 5.5
Oggi h: 00:30 sereno Sereno 6 5 93 1031 10 N 7.4
Oggi h: 00:00 sereno Sereno 7 5 87 1032 10 N 7.4
Ieri h: 23:30 sereno Sereno 7 6 93 1032 10 N 7.4
Ieri h: 23:00 sereno Sereno 7 6 93 1032 10 N 5.5
Ieri h: 22:30 sereno Sereno 7 6 93 1032 10 N 5.5
Ieri h: 22:00 sereno Sereno 8 6 87 1032 10 N 5.5
Ieri h: 21:30 sereno Sereno 8 7 93 1032 10 N/NE 7.4
Ieri h: 21:00 sereno Sereno 9 7 87 1032 10 N 5.5
Ieri h: 20:30 sereno Sereno 9 7 87 1032 10 N 3.7
Ieri h: 20:00 sereno Sereno 10 8 87 1032 10 N 5.5
Ieri h: 19:30 sereno Sereno 10 8 87 1032 10 N 3.7
Ieri h: 19:00 sereno Sereno 11 9 87 1031 10 N 7.4
Ieri h: 18:30 sereno Sereno 12 9 81 1031 10 N 5.5
Ieri h: 18:00 sereno Sereno 13 10 81 1031 10 N 5.5
Ieri h: 17:30 sereno Sereno 14 10 76 1031 10 SE 9.3
Ieri h: 17:00 sereno Sereno 14 10 76 1031 10 S/SE 9.3
Ieri h: 16:30 sereno Sereno 15 10 72 1031 10 S/SE 9.3
Ieri h: 16:00 sereno Sereno 15 10 72 1031 10 S 11.1
Ieri h: 15:30 sereno Sereno 15 10 72 1031 10 S 11.1